Oakes, ND

9:01 AM CDT on May 24, 2018 (GMT -0500)
Oakes

Weather History for K2D5 - May, 2013

Change the Weather History Date:

Wednesday, May 22, 2013

  Actual Average (KP67) Record (KP67)
Temperature  
Mean Temperature 55 °F -  
Max Temperature 66 °F 66 °F 70 °F (1998)
Min Temperature 44 °F 47 °F 52 °F (1997)
Degree Days  
Heating Degree Days 10    
Growing Degree Days 5 (Base 50)    
Moisture  
Dew Point 49 °F    
Average Humidity 83    
Maximum Humidity 100    
Minimum Humidity 49    
Precipitation  
Precipitation 0.00 in - - ()
Sea Level Pressure  
Sea Level Pressure 29.94 in    
Wind  
Wind Speed 16 mph (NNE)    
Max Wind Speed 26 mph    
Max Gust Speed 37 mph    
Visibility 10 miles    
Events      
Averages and records for this station are not official NWS values.
T = Trace of Precipitation, MM = Missing Value Source: NWS Daily Summary

Daily Weather History Graph

Daily Weather History Graph

Search for Another Location

Airport or City:

Astronomy

May. 22, 2013 Rise Set
Actual Time 5:51 AM CDT 9:06 PM CDT
Civil Twilight 5:15 AM CDT 9:43 PM CDT
Nautical Twilight 4:28 AM CDT 10:30 PM CDT
Astronomical Twilight 3:29 AM CDT 11:30 PM CDT
Moon 6:23 PM CDT (5/22) 4:06 AM CDT (5/22)
Length of Visible Light 16h 27m
Length of Day
15h 14m
Waxing Gibbous, 91% of the Moon is Illuminated
May 22
Waxing Gibbous
May 24
Full
May 31
Last Quarter
Jun 8
New
Jun 16
First Quarter

Hourly Weather History & Observations

Time (CDT) Temp. Windchill Dew Point Humidity Pressure Visibility Wind Dir Wind Speed Gust Speed Precip Events Conditions
12:15 AM 46.4 °F 40.7 °F 46.4 °F 100% 29.86 in 10.0 mi NNE 12.7 mph - N/A   Unknown
12:35 AM 46.4 °F 40.4 °F 46.4 °F 100% 29.86 in 10.0 mi NNE 13.8 mph - N/A   Unknown
12:55 AM 46.4 °F 40.4 °F 46.4 °F 100% 29.86 in 10.0 mi NNE 13.8 mph - N/A   Unknown
1:15 AM 46.4 °F 39.8 °F 46.4 °F 100% 29.86 in 10.0 mi NNE 16.1 mph 20.7 mph N/A   Unknown
1:35 AM 46.4 °F 40.1 °F 46.4 °F 100% 29.86 in 4.0 mi NNE 15.0 mph - N/A   Mist
1:55 AM 46.4 °F 40.1 °F 46.4 °F 100% 29.85 in 9.0 mi North 15.0 mph - N/A   Unknown
2:15 AM 44.6 °F 37.8 °F 44.6 °F 100% 29.85 in 3.0 mi North 15.0 mph - N/A   Mist
4:55 AM 44.6 °F 38.4 °F 44.6 °F 100% 29.86 in 10.0 mi North 12.7 mph - N/A   Unknown
5:15 AM 44.6 °F 37.8 °F 44.6 °F 100% 29.86 in 10.0 mi NNE 15.0 mph 19.6 mph N/A   Unknown
5:35 AM 44.6 °F 38.1 °F 44.6 °F 100% 29.87 in 10.0 mi North 13.8 mph - N/A   Unknown
5:55 AM 46.4 °F 40.4 °F 46.4 °F 100% 29.86 in 10.0 mi North 13.8 mph 18.4 mph N/A   Unknown
6:15 AM 46.4 °F 40.7 °F 46.4 °F 100% 29.87 in 10.0 mi North 12.7 mph - N/A   Unknown
6:35 AM 46.4 °F 39.5 °F 46.4 °F 100% 29.86 in 10.0 mi North 17.3 mph - N/A   Unknown
6:55 AM 46.4 °F 40.7 °F 46.4 °F 100% 29.87 in 10.0 mi North 12.7 mph - N/A   Unknown
7:15 AM 46.4 °F 39.8 °F 46.4 °F 100% 29.87 in 10.0 mi North 16.1 mph - N/A   Unknown
7:35 AM 46.4 °F 40.7 °F 46.4 °F 100% 29.88 in 10.0 mi NNE 12.7 mph 21.9 mph N/A   Unknown
7:55 AM 46.4 °F 39.2 °F 46.4 °F 100% 29.88 in 10.0 mi NNE 18.4 mph - N/A   Unknown
8:15 AM 48.2 °F - 46.4 °F 93% 29.88 in 10.0 mi North 15.0 mph 23.0 mph N/A   Unknown
8:35 AM 48.2 °F - 46.4 °F 93% 29.88 in 10.0 mi NNE 20.7 mph 24.2 mph N/A   Unknown
8:55 AM 48.2 °F - 48.2 °F 100% 29.89 in 10.0 mi NNE 17.3 mph 25.3 mph N/A   Unknown
9:15 AM 48.2 °F - 48.2 °F 100% 29.89 in 10.0 mi NNE 17.3 mph 21.9 mph N/A   Unknown
9:35 AM 48.2 °F - 48.2 °F 100% 29.90 in 10.0 mi NNE 20.7 mph 24.2 mph N/A   Unknown
9:55 AM 48.2 °F - 48.2 °F 100% 29.90 in 10.0 mi NNE 18.4 mph 24.2 mph N/A   Unknown
10:15 AM 50.0 °F - 48.2 °F 94% 29.90 in 10.0 mi NNE 19.6 mph - N/A   Unknown
10:35 AM 50.0 °F - 48.2 °F 94% 29.91 in 8.0 mi NNE 20.7 mph 25.3 mph N/A   Unknown
10:55 AM 50.0 °F - 48.2 °F 94% 29.91 in 10.0 mi NNE 21.9 mph 26.5 mph N/A   Unknown
11:15 AM 50.0 °F - 50.0 °F 100% 29.91 in 10.0 mi NNE 18.4 mph 21.9 mph N/A   Unknown
11:35 AM 51.8 °F - 50.0 °F 94% 29.92 in 10.0 mi NNE 18.4 mph 25.3 mph N/A   Unknown
11:55 AM 53.6 °F - 50.0 °F 88% 29.92 in 10.0 mi NNE 25.3 mph 29.9 mph N/A   Unknown
12:15 PM 55.4 °F - 51.8 °F 88% 29.92 in 10.0 mi North 20.7 mph 25.3 mph N/A   Unknown
12:35 PM 55.4 °F - 51.8 °F 88% 29.93 in 10.0 mi NNE 24.2 mph 28.8 mph N/A   Unknown
12:55 PM 57.2 °F - 53.6 °F 88% 29.93 in 10.0 mi NNE 20.7 mph 24.2 mph N/A   Unknown
1:15 PM 57.2 °F - 51.8 °F 82% 29.93 in 10.0 mi NNE 24.2 mph 33.4 mph N/A   Unknown
1:35 PM 59.0 °F - 51.8 °F 77% 29.93 in 10.0 mi NNE 25.3 mph 31.1 mph N/A   Unknown
1:55 PM 59.0 °F - 53.6 °F 82% 29.94 in 10.0 mi NNE 26.5 mph 33.4 mph N/A   Unknown
2:15 PM 60.8 °F - 53.6 °F 77% 29.93 in 10.0 mi NNE 24.2 mph 35.7 mph N/A   Unknown
2:35 PM 62.6 °F - 53.6 °F 72% 29.94 in 10.0 mi NNE 25.3 mph 36.8 mph N/A   Unknown
2:55 PM 62.6 °F - 53.6 °F 72% 29.94 in 10.0 mi NE 24.2 mph 33.4 mph N/A   Unknown
3:15 PM 64.4 °F - 51.8 °F 64% 29.94 in 10.0 mi NNE 25.3 mph 34.5 mph N/A   Unknown
3:35 PM 64.4 °F - 50.0 °F 59% 29.95 in 10.0 mi NE 23.0 mph 33.4 mph N/A   Unknown
3:55 PM 64.4 °F - 50.0 °F 59% 29.95 in 10.0 mi NE 25.3 mph 33.4 mph N/A   Unknown
4:15 PM 64.4 °F - 50.0 °F 59% 29.95 in 10.0 mi NE 26.5 mph 29.9 mph N/A   Unknown
4:35 PM 64.4 °F - 50.0 °F 59% 29.96 in 10.0 mi NNE 26.5 mph 32.2 mph N/A   Unknown
4:55 PM 66.2 °F - 48.2 °F 52% 29.97 in 10.0 mi NE 24.2 mph 29.9 mph N/A   Unknown
5:15 PM 64.4 °F - 48.2 °F 56% 29.97 in 10.0 mi NNE 24.2 mph 31.1 mph N/A   Unknown
5:35 PM 66.2 °F - 48.2 °F 52% 29.97 in 10.0 mi NE 20.7 mph 28.8 mph N/A   Unknown
5:55 PM 66.2 °F - 46.4 °F 49% 29.98 in 10.0 mi NNE 21.9 mph 29.9 mph N/A   Unknown
6:15 PM 66.2 °F - 46.4 °F 49% 29.99 in 10.0 mi NE 17.3 mph 29.9 mph N/A   Unknown
6:35 PM 64.4 °F - 51.8 °F 64% 29.99 in 10.0 mi East 10.4 mph 17.3 mph N/A   Mostly Cloudy
6:55 PM 64.4 °F - 53.6 °F 68% 30.00 in 10.0 mi ESE 8.1 mph - N/A   Partly Cloudy
7:15 PM 64.4 °F - 48.2 °F 56% 30.00 in 10.0 mi ENE 8.1 mph - N/A   Clear
7:35 PM 64.4 °F - 53.6 °F 68% 30.01 in 10.0 mi SE 6.9 mph - N/A   Clear
7:55 PM 62.6 °F - 53.6 °F 72% 30.01 in 10.0 mi SSE 6.9 mph - N/A   Clear
8:15 PM 62.6 °F - 55.4 °F 77% 30.02 in 10.0 mi South 5.8 mph - N/A   Clear
8:35 PM 60.8 °F - 53.6 °F 77% 30.03 in 10.0 mi Calm Calm - N/A   Clear
8:55 PM 60.8 °F - 48.2 °F 63% 30.03 in 10.0 mi NNE 3.5 mph - N/A   Clear
9:15 PM 59.0 °F - 48.2 °F 67% 30.04 in 10.0 mi NNE 8.1 mph - N/A   Unknown
9:35 PM 55.4 °F - 48.2 °F 77% 30.04 in 10.0 mi North 5.8 mph - N/A   Unknown
9:55 PM 55.4 °F - 46.4 °F 72% 30.05 in 10.0 mi NNE 4.6 mph - N/A   Unknown
10:15 PM 53.6 °F - 46.4 °F 77% 30.06 in 10.0 mi Calm Calm - N/A   Unknown
10:35 PM 53.6 °F - 46.4 °F 77% 30.07 in 10.0 mi Calm Calm - N/A   Unknown
10:55 PM 51.8 °F - 46.4 °F 82% 30.08 in 10.0 mi NNW 3.5 mph - N/A   Unknown
11:15 PM 50.0 °F - 46.4 °F 87% 30.08 in 10.0 mi North 6.9 mph - N/A   Unknown
11:35 PM 50.0 °F - 46.4 °F 87% 30.09 in 10.0 mi North 6.9 mph - N/A   Unknown
11:55 PM 50.0 °F - 46.4 °F 87% 30.10 in 10.0 mi North 6.9 mph - N/A   Unknown